Flag for Germany Weather past 2 weeks in Freiburg, Baden-Württemberg, Germany

Now
76 °F

Passing clouds.


Feels Like: 77 °F
Forecast: 60 / 93 °F
Wind: 2 mph from North

Location: Freiburg

Current Time: Aug 28, 2015 at 9:32:12 PM

Latest Report: Aug 28, 2015 at 9:00 PM


Visibility: 37 mi

Pressure: 30.09 "Hg

Humidity: 67%

Dew point: 64 °F

Location of FreiburgLocation

Historic Weather in Freiburg — Graph

°F

Freiburg temperature yesterday

Maximum temperature yesterday: 90 °F (at 4:00 PM)
Minimum temperature yesterday: 56 °F (at 3:00 AM)
Average temperature yesterday: 74 °F

Past Weeks' High & Low Weather Summary

 TemperatureHumidityPressure
High90 °F (Aug 13, 7:00 PM)99% (Aug 18, 6:00 AM)30.26 "Hg (Aug 18, 6:00 AM)
Low48 °F (Aug 18, 6:00 AM)26% (Aug 27, 4:00 PM)29.68 "Hg (Aug 24, 1:00 PM)
Average66 °F69%29.98 "Hg
* Reported Aug 13 7:00 PM — Aug 28 7:00 PM, Freiburg, Weather by CustomWeather, © 2015

Note: Actual official high and low records may vary slightly from our data, if they occured in-between our weather recording intervals... More about our weather records

Advertising

Freiburg weather history for previous 24 hours

 ConditionsComfort  
Time TempWeatherWind HumidityBarometerVisibility
7:00 PM
Fri, Aug 28
83 °FPassing clouds.3 mph49%30.05 "Hg43 mi
6:00 PM85 °FPassing clouds.3 mph45%30.04 "Hg43 mi
4:00 PM84 °FOvercast.5 mph46%30.05 "Hg19 mi
3:00 PM81 °FOvercast.3 mph53%30.06 "Hg37 mi
1:00 PM80 °FOvercast.7 mph47%30.06 "Hg22 mi
12:00 PM79 °FOvercast.7 mph48%30.06 "Hg40 mi
11:00 AM78 °FOvercast.8 mph47%30.04 "Hg37 mi
10:00 AM78 °FOvercast.8 mph46%30.01 "Hg34 mi
9:00 AM78 °FOvercast.6 mph45%30.00 "Hg43 mi
7:00 AM75 °FOvercast.3 mph51%29.98 "Hg43 mi
6:00 AM73 °FOvercast.3 mph61%29.95 "Hg43 mi
5:00 AM69 °FOvercast.1 mph83%29.96 "Hg43 mi
4:00 AM68 °FOvercast.1 mph84%29.96 "Hg40 mi
3:00 AM72 °FOvercast.2 mph68%29.95 "Hg43 mi
1:00 AM78 °FOvercast.5 mph45%29.90 "Hg43 mi
10:00 PM
Thu, Aug 27
77 °FOvercast.2 mph51%29.84 "Hg37 mi
9:00 PM76 °FOvercast.2 mph57%29.83 "Hg40 mi
Weather by CustomWeather, © 2015

See weather overviewHow to use our weather pages